カタログに戻る

KOREASAT 116

運用中通信GEO
NORAD 45920·PAYLOAD·🇰🇷 South Korea

打ち上げ Jul 20, 2020 から Cape Canaveral Space Force Station

Loading…

TLE

最新Source: Space-Track

元期: Sep 14, 2026, 14:21 UTC

1 45920U 20048A   26257.59815444 -.00000370  00000-0  00000-0 0  9997
2 45920   0.0132 239.4927 0000977 281.1532 164.4702  1.00274264 22531

AllMySatでKOREASAT 116をリアルタイム追跡

Download on the App Store